Weather in Ukrainske

Ukraine / Kharkiv Region     50°10′02″N   36°58′21″E
temp.,
°C
wind,
m/s
gust,
m/s
humid.,
%
clouds,
%
prec.,
mm/h
press.,
hPa
HPBL,
m
29 july, thu
thu2900:00+22sw36599 0.1 1012105
03:00+20wsw23730 0.1 101241
06:00+20w23815 0.1 101287
09:00+26w33585 0.1 1012557
12:00+31w34363 0.0 10112430
15:00+33wnw352765 0.0 10093273
18:00+28ssw474240 0.0 1008208
21:00+24ssw6116493 0.0 1009314
30 july, fri
fri3000:00+23sw486837 0.0 1009259
03:00+19sw35822 0.1 100995
06:00+19sw36871 0.0 1009172
09:00+26sw335929 0.0 1008541
12:00+31sw454153 0.0 10081801
15:00+30sw464793 0.3 1007450
18:00+19ene5689100 30.3 1007116
21:00+19sw2495100 38.6 1009124
31 july, sat
sat3100:00+19nw2391100 1.1 100968
03:00+19sw119173 1.9 101017
06:00+19n348511 0.0 101088
09:00+24n23610 0.0 1011354
12:00+28n12420 0.0 10111619
15:00+30se13340 0.0 10102316
18:00+29se34450 0.0 1010188
21:00+24se33520 0.0 101127
1 august, sun
sun100:00+21sse11580 0.0 101211
03:00+20s11590 0.0 101311
06:00+20se22620 0.0 101224
09:00+27sse23480 0.0 1012341
12:00+30s33370 0.0 10121637
15:00+32ssw22295 0.0 10112120
18:00+31s123799 0.0 1010273
21:00+25ssw224298 0.0 101016
2 august, mon
mon200:00+23s22495 0.0 101013
03:00+22ssw22590 0.0 101011
06:00+22s22650 0.0 101013
09:00+28ssw45513 0.0 1009419
12:00+32ssw5635100 0.0 10081846
15:00+34ssw57295 0.0 10072880
18:00+30ssw363918 0.0 1006134
21:00+27sw7144598 0.0 1007407